User: anonymous   Login
Location: Al Mulaqqa?ah
(24.1833°N, 32.8833°E)
Time: 17:52:41
(UTC+00:00)
Language:

Cosmos 1733 - Orbit

View from above orbital plane
View from above orbital plane
View from above satellite
View from above satellite

Ground track
Ground track

The orbit data is extracted from the following two-line orbital elements,

1 16611U 86018A   21333.69159986  .00001130  00000-0  53565-4 0  9996
2 16611  82.4900 226.6472 0013784  93.3309 266.9502 15.18206148955330
Epoch (UTC): 29 November 2021 16:35:54
Eccentricity: 0.0013784
inclination: 82.4900°
perigee height: 502 km
apogee height: 521 km
right ascension of ascending node: 226.6472°
argument of perigee: 93.3309°
revolutions per day: 15.18206148
mean anomaly at epoch: 266.9502°
orbit number at epoch: 95533

The dashed part of the orbit path shows where the satellite is in the earth's shadow,  

DLR